Wind_Speed
8 10 10 9 8 7 10 13 19 23 20 20 23 24 25 24 21 20 20 22 22 20 17 16 14 14 17 18 21 21 20 20 19 18 18 18 17 17 16 15 15 16 16 16 16 16 15 15 14
5 7 9 10 11 10 12 12 15 19 20 22 24 24 25 26 24 22 23 22 20 17 13 13 12 14 17 21 26 24 22 22 20 19 19 18 18 18 17 17 18 19 20 19 19 18 18 18 18
1 1 2 6 14 15 16 17 16 18 20 22 23 24 24 25 23 21 19 16 13 13 13 11 13 16 17 19 23 24 25 26 24 22 21 21 20 21 21 22 24 24 24 24 25 24 24 23 22
3 3 1 1 7 13 17 16 15 17 18 20 21 22 22 22 21 17 13 10 9 10 10 10 12 11 14 16 18 24 26 26 25 23 24 26 24 22 22 28 29 27 27 28 31 33 29 28 25
7 6 5 3 1 5 6 7 10 15 16 16 19 20 20 20 17 12 9 8 5 4 4 7 10 11 17 20 22 26 28 26 26 25 26 31 27 27 28 31 30 26 30 31 32 36 30 32 31
9 8 9 8 7 6 4 2 5 11 13 15 17 18 16 12 7 5 5 4 3 1 3 6 11 14 14 18 22 30 32 29 28 28 27 27 29 29 26 26 25 25 25 28 29 25 23 25 27
9 9 9 8 8 7 6 2 3 6 7 10 13 14 12 9 7 3 1 4 5 4 8 11 14 15 16 13 14 19 25 25 26 24 25 27 27 27 26 23 23 26 26 24 22 24 26 23 23
7 7 7 7 6 6 6 4 3 9 13 14 13 9 7 9 8 6 4 4 6 8 10 13 17 20 21 20 21 21 23 24 25 25 26 27 26 29 30 29 28 27 27 25 25 26 27 26 24
5 5 4 4 3 3 4 3 2 6 10 13 12 7 7 9 9 9 8 9 9 11 12 14 15 18 22 24 24 25 26 27 27 26 27 28 27 27 27 29 30 29 29 29 30 30 29 29 26
5 4 5 5 4 3 1 1 1 4 5 7 7 6 9 12 11 10 11 12 12 13 13 14 15 17 19 21 24 27 28 29 29 30 29 28 27 27 27 28 29 30 30 30 32 33 33 32 32
7 8 8 8 9 7 5 5 5 6 9 8 9 11 14 17 15 14 13 13 14 14 15 16 17 19 20 22 24 27 29 28 28 29 28 27 27 28 28 29 29 30 31 32 33 34 35 35 35
11 10 11 13 13 11 9 7 9 8 12 12 13 14 17 19 18 18 15 14 14 15 16 18 19 21 22 23 25 26 29 29 27 27 27 27 29 30 31 32 32 33 34 35 36 37 37 38 39
13 13 14 15 17 15 13 12 12 12 14 13 16 16 16 19 22 20 17 17 18 18 20 22 24 25 25 26 27 28 29 30 30 30 31 33 34 33 33 33 33 34 35 36 37 38 39 40 41
15 15 17 19 20 19 17 17 14 14 17 16 18 17 19 21 23 22 20 20 22 24 25 26 28 28 27 27 27 28 30 32 33 34 36 37 38 38 38 39 39 39 39 38 38 39 40 42 43
16 17 19 21 20 20 19 19 18 16 16 17 18 18 19 19 22 24 24 25 25 25 26 27 28 29 29 29 30 30 32 34 36 37 39 39 41 42 44 45 46 46 45 45 45 45 46 47 49
18 19 20 22 20 21 18 17 19 17 16 17 18 19 17 16 21 25 26 25 25 25 28 29 30 31 31 28 30 32 34 36 38 37 38 39 40 42 44 46 48 49 49 50 53 56 57 58 60
20 19 20 23 21 21 19 19 21 18 16 18 21 20 19 18 22 25 24 24 26 28 30 29 30 30 27 24 26 29 32 35 36 35 37 40 43 45 47 49 50 51 54 57 59 61 63 63 65
21 20 21 22 23 20 22 23 22 18 15 18 21 21 23 22 23 25 26 28 29 32 33 31 32 34 29 24 25 26 30 31 32 35 38 42 44 47 50 52 52 55 59 61 61 62 62 62 64
22 20 20 22 22 20 24 24 21 20 18 19 22 23 24 24 23 26 29 31 33 35 37 36 37 43 40 30 33 29 28 31 35 37 40 44 48 51 54 56 59 62 63 64 65 64 65 66 69
22 20 21 22 21 21 25 25 24 23 22 21 23 25 25 26 28 30 32 33 35 36 38 37 37 39 46 48 33 34 34 39 43 42 45 48 49 54 59 62 64 67 68 70 72 73 75 76 79
22 21 22 22 23 24 26 24 26 26 27 27 27 28 28 29 32 34 34 35 34 34 36 38 40 41 40 42 43 48 48 52 49 49 50 50 54 59 64 67 70 73 76 78 81 82 84 85 86
22 23 23 24 22 19 23 18 25 26 27 27 28 29 31 32 33 34 34 33 33 34 36 39 42 45 44 50 54 54 53 54 54 54 55 59 63 67 70 73 75 78 79 80 80 81 82 83 82
23 23 23 24 21 22 22 18 23 26 25 25 26 27 29 30 30 31 34 35 36 37 39 42 44 47 49 51 53 55 56 57 58 60 64 67 70 74 76 78 79 80 80 78 76 75 74 73 72
23 23 24 23 20 20 19 19 18 27 24 25 25 26 28 30 32 34 36 38 39 41 43 44 45 47 50 52 54 55 57 59 62 66 69 72 75 77 79 80 81 80 78 75 73 69 67 66 64
23 22 18 18 17 18 23 22 22 26 25 25 26 28 30 32 34 36 38 40 41 42 42 43 44 44 46 49 52 55 59 64 67 70 73 76 79 80 81 82 82 80 76 70 66 63 63 64 64
22 21 18 18 17 19 27 25 25 24 25 26 27 29 31 32 33 34 35 36 37 37 37 39 41 43 46 51 56 61 65 69 72 75 78 81 82 83 83 81 80 76 68 65 64 62 60 58 58
24 24 22 22 23 23 24 27 25 23 25 26 29 30 30 31 31 31 31 31 32 33 36 39 43 47 52 57 62 66 70 74 77 81 83 84 84 83 80 76 68 61 59 58 55 51 48 47 46
26 24 24 23 21 22 20 23 24 24 25 29 31 32 33 32 31 31 32 35 37 39 42 46 49 54 58 63 67 72 76 80 83 86 85 83 80 76 67 58 54 51 51 50 48 44 41 40 38
26 26 26 24 24 22 20 23 28 31 31 34 35 36 35 34 35 36 38 40 43 45 48 51 55 60 64 69 73 77 81 85 86 85 82 75 65 54 49 47 46 45 44 43 42 40 39 37 35
28 27 26 26 24 26 25 27 32 34 35 38 38 38 38 38 40 41 42 44 47 49 53 57 61 66 70 75 79 82 84 85 82 73 60 49 43 42 42 41 39 37 36 35 35 34 35 36 35
Wind_Direction
222 220 214 212 212 219 220 232 237 246 251 257 263 267 272 274 276 283 286 290 290 293 295 299 275 248 243 249 249 240 239 240 235 230 231 233 236 240 246 250 252 251 248 244 242 239 235 235 238
228 230 225 217 212 226 233 236 237 243 244 251 259 265 271 277 280 284 288 290 283 279 281 288 257 234 232 238 241 235 231 233 232 228 227 230 236 241 244 251 255 254 252 248 242 238 237 238 240
278 288 194 217 221 228 241 246 244 245 248 254 261 268 276 281 289 290 289 290 281 271 271 284 249 234 230 228 218 236 234 231 231 232 230 231 232 237 241 251 258 260 257 251 246 243 241 240 238
44 42 45 242 238 241 246 245 242 242 251 256 265 273 281 292 302 306 310 308 286 266 279 274 252 248 236 230 228 243 236 232 234 238 237 236 229 239 248 255 257 259 261 262 260 255 246 245 245
61 67 62 55 173 200 211 227 236 246 252 258 265 271 282 295 307 317 326 328 325 313 288 243 237 251 238 233 252 250 241 239 243 245 246 253 252 250 249 252 260 258 262 259 267 258 248 246 244
57 65 64 64 82 100 96 180 237 248 257 264 271 277 285 295 299 316 330 336 336 252 220 222 233 251 270 259 245 239 237 240 248 256 255 260 255 249 255 261 279 277 277 260 260 264 259 256 253
46 53 67 75 84 81 71 72 249 256 260 267 283 281 274 267 275 278 284 310 303 266 249 241 245 258 271 286 284 262 254 256 256 266 271 281 285 285 287 287 290 291 282 283 288 282 275 284 279
36 34 43 52 59 60 51 32 288 266 256 263 277 279 261 250 266 278 282 275 276 275 266 257 251 255 263 269 272 271 271 273 275 276 278 281 284 285 295 295 293 291 288 284 283 282 285 290 288
8 11 10 0 12 24 29 21 285 267 241 242 259 265 265 264 267 273 273 270 268 270 274 276 272 267 267 268 270 273 275 274 274 278 282 281 281 282 285 286 283 279 277 280 280 281 282 284 282
322 303 295 314 310 303 289 168 312 308 263 240 248 260 289 289 285 282 275 269 269 268 270 275 276 272 266 268 272 273 272 271 272 277 281 280 279 280 280 280 279 279 279 278 276 278 279 279 276
289 281 293 299 300 292 265 234 248 295 290 276 280 280 288 294 292 288 283 278 274 275 276 273 273 273 273 274 275 273 271 271 273 276 276 275 276 276 277 277 278 280 279 278 277 277 278 277 276
277 283 288 291 294 292 280 259 255 276 281 273 280 275 275 282 282 282 281 272 269 271 273 273 272 270 268 268 270 271 273 276 277 277 277 277 277 277 278 279 279 278 277 277 277 277 277 276 276
268 278 281 285 287 287 279 270 269 284 280 269 273 276 277 275 277 279 280 275 271 274 275 275 274 275 273 270 269 271 273 276 280 283 285 285 285 284 284 283 282 281 281 280 280 280 279 278 278
264 271 276 279 281 281 279 280 284 291 285 274 275 279 283 283 281 282 282 280 282 284 282 278 274 273 273 274 274 272 271 271 274 277 279 280 280 280 280 280 281 281 282 283 284 284 284 285 283
256 259 268 273 275 275 280 282 291 285 279 266 270 275 279 282 282 287 291 293 291 287 281 275 272 270 269 270 272 272 272 273 275 275 277 279 281 283 284 284 284 284 286 287 287 287 285 284 284
257 258 264 269 274 278 279 276 278 280 272 258 256 261 268 275 277 282 288 294 294 290 287 283 281 275 266 266 272 275 277 278 278 278 279 280 281 281 281 283 284 283 284 286 287 288 287 286 285
259 260 265 267 274 275 277 271 274 281 269 252 247 251 260 268 272 278 286 291 293 293 296 295 290 282 266 260 269 278 281 281 282 284 284 284 284 284 284 285 285 286 288 289 289 288 286 285 285
258 264 266 268 276 273 271 272 278 275 266 254 251 257 267 277 280 282 289 294 297 296 297 298 295 291 280 258 264 275 280 281 284 285 285 285 286 287 290 291 291 294 295 294 291 289 287 285 282
259 262 266 268 271 270 266 272 276 271 258 261 267 266 275 281 281 281 286 292 297 298 298 297 294 293 293 297 294 284 277 283 290 289 285 286 287 290 294 293 295 296 296 295 293 290 288 284 281
260 262 262 262 265 265 264 269 272 271 269 267 265 264 265 268 274 278 279 282 289 293 297 296 290 289 294 303 290 284 277 286 295 292 289 289 289 291 293 295 296 297 298 296 293 291 288 286 285
258 259 259 262 265 268 270 272 269 266 266 268 266 265 264 265 270 275 278 282 284 286 288 286 285 289 293 296 296 292 288 293 297 295 294 294 295 295 297 298 298 297 295 294 293 292 291 289 288
258 258 259 261 265 263 268 266 276 273 264 266 267 267 270 274 278 282 283 283 283 284 282 281 284 288 285 284 285 287 291 295 296 297 298 297 298 297 297 296 296 296 295 295 295 293 291 290 289
251 260 262 264 262 255 265 260 268 275 276 274 274 275 277 279 281 283 284 284 283 282 280 281 281 282 282 282 283 287 291 294 296 297 297 297 297 296 297 298 299 299 300 299 296 294 292 290 289
257 260 263 264 262 263 259 255 261 269 274 275 275 275 275 276 278 279 280 279 278 278 277 277 277 277 279 282 285 289 290 292 293 294 295 294 295 296 298 300 300 299 299 298 297 295 294 292 290
257 260 258 259 256 259 256 261 254 267 278 279 279 281 283 283 282 282 283 282 281 279 277 277 279 281 283 286 287 289 290 292 292 293 293 294 296 298 299 299 298 298 299 298 296 296 295 293 292
251 249 239 247 255 260 267 266 269 277 281 284 288 290 291 291 291 291 289 287 284 283 282 282 283 284 285 287 289 290 290 291 292 293 294 296 298 299 298 298 297 297 296 296 296 297 297 296 294
248 249 242 240 247 247 263 273 276 281 285 291 295 296 297 298 298 296 295 293 291 289 287 286 285 286 287 288 290 291 292 293 293 294 296 298 298 298 298 299 299 297 298 299 300 300 298 298 297
247 246 246 247 246 254 258 270 280 284 292 299 301 302 303 302 300 299 299 298 297 296 295 293 293 293 294 294 294 294 293 293 294 296 297 297 298 299 299 298 298 298 298 298 298 300 300 298 297
245 243 241 235 238 243 257 268 276 286 295 299 300 303 303 300 299 301 301 300 300 300 300 299 298 298 297 296 295 295 295 296 296 297 298 298 298 297 296 296 297 298 299 299 299 298 298 300 300
243 240 239 241 247 257 253 258 268 280 292 296 299 302 302 300 301 302 303 303 303 302 302 301 301 300 300 299 299 299 299 299 299 300 299 299 299 297 297 300 302 305 306 304 302 300 300 301 300
Height
5900 5900 5902 5903 5905 5906 5907 5908 5907 5907 5908 5907 5905 5905 5905 5906 5908 5910 5908 5905 5904 5903 5901 5898 5897 5897 5897 5897 5898 5897 5897 5897 5897 5897 5897 5897 5897 5898 5898 5898 5898 5897 5896 5895 5894 5895 5894 5894 5893
5899 5900 5902 5903 5904 5905 5906 5906 5906 5905 5905 5904 5903 5902 5902 5902 5904 5904 5903 5901 5900 5899 5897 5896 5894 5892 5892 5893 5894 5893 5894 5895 5895 5894 5894 5893 5894 5894 5894 5894 5894 5894 5893 5892 5891 5890 5890 5889 5888
5899 5899 5901 5903 5904 5904 5903 5904 5904 5904 5903 5902 5901 5901 5901 5900 5900 5900 5899 5897 5896 5895 5894 5893 5890 5889 5890 5891 5890 5892 5891 5891 5892 5891 5891 5891 5890 5890 5888 5889 5890 5890 5889 5888 5887 5886 5884 5884 5883
5898 5899 5901 5902 5902 5902 5902 5902 5902 5902 5901 5901 5900 5899 5899 5898 5896 5895 5894 5893 5892 5891 5891 5889 5888 5889 5888 5888 5886 5886 5886 5887 5888 5888 5887 5887 5886 5885 5885 5885 5885 5884 5883 5883 5883 5881 5879 5879 5878
5898 5899 5900 5900 5900 5900 5900 5901 5901 5900 5900 5899 5898 5898 5896 5896 5893 5892 5891 5889 5888 5888 5888 5886 5887 5888 5887 5887 5886 5885 5884 5885 5885 5884 5884 5882 5881 5881 5880 5879 5880 5879 5877 5876 5877 5877 5876 5873 5872
5898 5900 5901 5901 5900 5900 5900 5900 5900 5900 5899 5897 5896 5896 5895 5894 5892 5890 5889 5887 5887 5887 5886 5886 5886 5885 5885 5886 5885 5884 5883 5881 5881 5879 5879 5877 5876 5875 5875 5875 5874 5873 5872 5871 5872 5871 5869 5867 5868
5899 5900 5901 5901 5901 5900 5900 5900 5900 5899 5898 5897 5895 5894 5893 5891 5890 5889 5888 5886 5885 5884 5884 5884 5884 5883 5882 5881 5881 5880 5879 5877 5876 5875 5874 5873 5871 5870 5871 5870 5870 5869 5867 5866 5866 5864 5863 5861 5862
5898 5900 5900 5900 5900 5900 5900 5900 5900 5899 5898 5896 5894 5893 5891 5890 5888 5887 5886 5884 5884 5883 5882 5881 5880 5879 5879 5879 5878 5877 5876 5873 5872 5871 5869 5869 5867 5867 5866 5866 5865 5864 5862 5861 5860 5858 5857 5855 5854
5897 5900 5899 5899 5899 5899 5899 5899 5899 5897 5896 5894 5893 5892 5890 5888 5887 5886 5885 5884 5883 5882 5880 5879 5878 5877 5876 5875 5874 5873 5871 5869 5868 5866 5865 5863 5863 5863 5862 5861 5859 5858 5856 5854 5853 5852 5851 5850 5848
5897 5898 5898 5897 5897 5898 5898 5897 5896 5896 5894 5893 5892 5890 5887 5885 5885 5884 5883 5883 5882 5881 5879 5877 5876 5874 5872 5871 5870 5868 5866 5865 5863 5862 5861 5859 5858 5856 5856 5855 5854 5852 5849 5847 5846 5845 5844 5842 5842
5894 5895 5894 5894 5894 5895 5896 5895 5894 5894 5892 5892 5890 5888 5885 5882 5882 5881 5880 5880 5878 5877 5876 5874 5872 5870 5868 5867 5865 5863 5861 5860 5859 5858 5856 5854 5852 5851 5850 5849 5848 5846 5845 5843 5841 5839 5837 5836 5835
5890 5891 5891 5890 5890 5891 5892 5892 5891 5891 5891 5890 5888 5886 5884 5880 5879 5877 5877 5877 5875 5874 5873 5871 5869 5867 5865 5863 5861 5858 5857 5855 5853 5852 5850 5849 5848 5846 5845 5843 5841 5840 5839 5838 5836 5833 5830 5828 5827
5887 5887 5887 5888 5887 5888 5888 5888 5888 5887 5887 5886 5885 5884 5882 5878 5875 5875 5874 5874 5872 5871 5869 5868 5865 5863 5861 5859 5858 5856 5853 5851 5848 5846 5845 5843 5842 5840 5839 5837 5835 5833 5831 5829 5827 5824 5822 5821 5819
5884 5884 5883 5883 5884 5884 5885 5884 5884 5885 5883 5882 5881 5880 5878 5875 5872 5871 5871 5870 5868 5867 5865 5863 5859 5856 5855 5854 5853 5852 5849 5846 5844 5842 5840 5837 5835 5833 5831 5829 5826 5824 5822 5819 5816 5815 5813 5812 5810
5881 5881 5881 5880 5880 5880 5881 5880 5879 5880 5878 5877 5877 5876 5874 5872 5869 5867 5866 5865 5864 5861 5858 5854 5852 5850 5849 5848 5847 5845 5843 5841 5839 5837 5834 5832 5830 5828 5826 5823 5820 5817 5814 5811 5808 5805 5803 5800 5798
5877 5878 5878 5877 5876 5875 5878 5878 5876 5875 5875 5874 5873 5873 5872 5870 5867 5865 5863 5861 5858 5855 5851 5849 5847 5844 5842 5842 5840 5838 5836 5834 5832 5831 5829 5827 5824 5822 5819 5817 5814 5811 5807 5804 5801 5797 5794 5790 5786
5873 5874 5874 5873 5872 5872 5872 5873 5869 5870 5871 5870 5870 5870 5869 5868 5865 5862 5860 5858 5855 5851 5847 5844 5842 5837 5835 5835 5834 5832 5829 5827 5825 5824 5822 5820 5817 5813 5810 5808 5804 5801 5798 5795 5791 5788 5783 5778 5774
5870 5870 5870 5869 5867 5868 5867 5866 5865 5866 5867 5866 5865 5866 5866 5866 5863 5859 5856 5853 5850 5846 5843 5839 5835 5829 5826 5828 5827 5825 5823 5821 5818 5816 5813 5810 5807 5803 5800 5797 5795 5792 5788 5783 5779 5774 5770 5765 5761
5865 5866 5866 5865 5863 5863 5861 5861 5862 5862 5862 5861 5861 5860 5861 5860 5858 5855 5852 5848 5845 5841 5837 5832 5827 5822 5823 5819 5818 5814 5813 5812 5809 5807 5803 5800 5796 5793 5791 5788 5784 5781 5775 5770 5764 5759 5754 5750 5745
5859 5860 5860 5859 5859 5858 5855 5856 5856 5856 5857 5857 5856 5855 5855 5854 5852 5850 5847 5845 5841 5835 5829 5827 5822 5817 5812 5808 5807 5805 5802 5800 5799 5797 5794 5791 5787 5783 5779 5775 5769 5764 5757 5751 5746 5741 5736 5731 5724
5853 5854 5854 5854 5854 5852 5851 5851 5851 5850 5850 5850 5850 5849 5849 5848 5845 5843 5841 5838 5835 5831 5827 5821 5817 5810 5806 5802 5798 5797 5792 5788 5786 5784 5782 5778 5773 5768 5763 5758 5752 5747 5740 5733 5725 5719 5711 5707 5703
5847 5847 5847 5847 5849 5850 5848 5851 5844 5844 5844 5843 5843 5842 5841 5839 5837 5834 5831 5829 5826 5823 5821 5816 5811 5804 5801 5796 5792 5786 5781 5778 5776 5772 5767 5762 5758 5753 5748 5742 5736 5729 5721 5713 5706 5699 5691 5684 5679
5840 5840 5841 5841 5842 5843 5843 5845 5844 5838 5836 5836 5835 5834 5832 5830 5828 5825 5822 5819 5817 5814 5811 5808 5804 5798 5792 5788 5784 5779 5774 5769 5764 5759 5753 5748 5743 5737 5731 5724 5717 5709 5702 5694 5687 5679 5671 5664 5658
5833 5834 5834 5834 5836 5837 5839 5839 5841 5833 5831 5829 5828 5826 5825 5823 5820 5817 5813 5810 5808 5805 5802 5798 5794 5790 5786 5782 5777 5771 5765 5759 5754 5748 5743 5736 5729 5722 5715 5707 5699 5691 5684 5675 5667 5660 5653 5647 5642
5827 5828 5830 5830 5831 5832 5830 5831 5833 5828 5825 5823 5821 5819 5816 5814 5811 5807 5804 5800 5797 5794 5791 5788 5785 5781 5778 5773 5768 5762 5755 5748 5742 5736 5728 5721 5713 5706 5697 5689 5680 5672 5664 5656 5649 5643 5637 5631 5626
5820 5823 5827 5829 5828 5828 5822 5823 5822 5821 5818 5815 5813 5811 5807 5804 5801 5798 5795 5792 5789 5786 5783 5780 5777 5773 5768 5762 5756 5749 5742 5735 5727 5719 5711 5703 5695 5687 5679 5670 5661 5653 5645 5639 5633 5628 5621 5614 5608
5813 5814 5818 5819 5819 5819 5819 5814 5815 5813 5811 5809 5806 5803 5799 5796 5793 5790 5787 5784 5781 5778 5774 5770 5766 5762 5756 5750 5743 5735 5727 5719 5710 5701 5693 5684 5676 5668 5659 5650 5642 5635 5629 5624 5618 5612 5606 5600 5595
5806 5808 5809 5809 5812 5813 5813 5811 5810 5806 5805 5802 5799 5795 5792 5789 5786 5783 5780 5776 5772 5769 5764 5759 5753 5748 5743 5735 5727 5719 5710 5701 5692 5682 5673 5665 5656 5648 5640 5633 5628 5622 5616 5610 5605 5599 5594 5590 5585
5800 5801 5802 5804 5805 5807 5808 5809 5801 5799 5797 5794 5791 5788 5785 5781 5779 5775 5771 5767 5763 5759 5753 5747 5741 5735 5728 5719 5710 5701 5690 5680 5670 5660 5651 5643 5636 5631 5626 5620 5615 5610 5604 5598 5593 5589 5585 5580 5575
5792 5794 5796 5797 5797 5797 5798 5801 5794 5791 5790 5787 5784 5781 5777 5774 5770 5766 5762 5757 5752 5747 5741 5735 5728 5719 5710 5701 5690 5680 5668 5657 5648 5639 5632 5626 5622 5618 5614 5610 5605 5600 5595 5590 5585 5580 5576 5571 5566